Location: ???? ?????????
(31.1304°N, 31.7111°E)
Time: 07:55:36
(UTC+00:00)

FENGYUN 1C DEB - Visible Passes

Search period start: 21 June 2021 00:00
Search period end: 01 July 2021 00:00
Orbit: 816 x 853 km, 98.9° (Epoch: 20 June)

Date Brightness Start Highest point End Pass type
(mag) Time Alt. Az. Time Alt. Az. Time Alt. Az.
21 Jun ? 17:48:30 12° SE 17:52:58 35° ENE 17:57:46 10° N visible
21 Jun ? 19:30:09 14° SW 19:33:18 22° W 19:37:23 10° NW visible
22 Jun ? 17:32:17 10° ESE 17:36:31 25° ENE 17:40:44 10° NNE visible
22 Jun ? 19:13:21 17° SSW 19:16:38 32° W 19:21:23 10° NW visible
23 Jun ? 18:56:33 20° SSW 19:00:00 48° W 19:05:09 10° NNW visible
24 Jun ? 18:39:45 21° S 18:43:24 72° WSW 18:48:44 10° NNW visible
25 Jun ? 18:22:57 19° SSE 18:26:50 78° ENE 18:32:10 10° N visible
26 Jun ? 18:06:10 16° SE 18:10:18 52° ENE 18:15:28 10° N visible
26 Jun ? 19:48:02 10° SW 19:50:51 14° W 19:53:42 10° WNW visible
27 Jun ? 17:49:21 12° SE 17:53:48 36° ENE 17:58:37 10° N visible
27 Jun ? 19:31:01 13° SW 19:34:09 22° W 19:38:12 10° NW visible
28 Jun ? 17:33:07 10° ESE 17:37:21 25° ENE 17:41:35 10° NNE visible
28 Jun ? 19:14:13 17° SSW 19:17:28 32° W 19:22:13 10° NW visible
29 Jun ? 18:57:24 20° SSW 19:00:50 48° W 19:05:58 10° NNW visible
30 Jun ? 18:40:37 21° S 18:44:13 71° WSW 18:49:33 10° NNW visible
